Regional Weather Roundup
Issued by NWS

Home | Current Version | Previous Version | Text Only | Print | Product List | Glossary On
Versions: 1 2 3 4 5 6 7 8 9 10 11 12 13 14 15 16 17 18 19 20 21 22 23 24 25 26 27 28 29 30 31 32 33 34 35 36 37 38 39 40 41 42 43 44 45 46 47 48 49 50
000
ASUS43 KTOP 031608
RWRKS

WEATHER ROUNDUP FOR KANSAS
NATIONAL WEATHER SERVICE GOODLAND KS
1100 AM CDT SUN MAY 03 2015

NOTE:  "FAIR" INDICATES FEW OR NO CLOUDS BELOW 12,000 FEET WITH NO
SIGNIFICANT WEATHER AND/OR OBSTRUCTIONS TO VISIBILITY.

KSZ001>006-013>018-027>032-041>047-031700-
NORTHWEST KANSAS

CITY           SKY/WX    TMP DP  RH WIND       PRES   REMARKS
GOODLAND       MOSUNNY   76  47  35 NW9       29.88S
HAYS           SUNNY     81  46  30 CALM      29.82R
HILL CITY      SUNNY     79  50  36 VRB6      29.81F
RUSSELL        SUNNY     81  47  30 S5        29.79S
$$

KSZ061>065-074>080-084>089-031700-
SOUTHWEST KANSAS

CITY           SKY/WX    TMP DP  RH WIND       PRES   REMARKS
DODGE CITY     MOSUNNY   78  46  32 VRB3      29.85S
ELKHART          N/A     73  46  38 W13         N/A
GARDEN CITY    MOSUNNY   77  46  33 N6        29.85S
GREAT BEND     SUNNY     75  54  46 S6        29.81S
LIBERAL        PTSUNNY   73  46  38 NW6       29.90R
PRATT          MOSUNNY   73  52  46 SW12      29.85R
$$

KSZ066>073-081>083-090>101-031700-
SOUTHEAST KANSAS

CITY           SKY/WX    TMP DP  RH WIND       PRES   REMARKS
CHANUTE        SUNNY     77  58  51 S24       29.91F
COFFEYVILLE    MOSUNNY   73  57  57 S18       29.92F
HUTCHINSON     SUNNY     75  56  51 SW14      29.84R
MEDICINE LODGE   N/A     73  56  54 S15G21    29.84F
NEWTON         SUNNY     72  54  53 S20G25    29.87R
PARSONS        MOSUNNY   76  58  53 S16G23    29.93F
WICHITA INTL   MOSUNNY   72  56  57 S16       29.86S
WICHITA JABRA  MOSUNNY   73  56  54 S17       29.86R
WICHITA MCCONL PTSUNNY   72  56  58 S15G22    29.87R
WINFIELD       PTSUNNY   72  56  57 S16G30    29.89S
$$

KSZ007>012-019>026-033>040-048>060-102>105-031700-
NORTHEAST KANSAS

CITY           SKY/WX    TMP DP  RH WIND       PRES   REMARKS
CONCORDIA      MOSUNNY   77  53  43 W8        29.78R
EMPORIA        MOSUNNY   77  56  48 S20       29.85S
LAWRENCE       PTSUNNY   73  57  57 S15G22    29.85F
MANHATTAN      MOSUNNY   76  58  53 SW16      29.80S
MARYSVILLE     MOSUNNY   73  59  60 S12       29.79S
OLATHE IND     PTSUNNY   71  55  56 S21G31    29.86F
OLATHE EXE     PTSUNNY   73  57  57 S16G25    29.86F
SALINA         MOSUNNY   77  57  50 S15       29.80F
TOPEKA BILLARD MOSUNNY   74  57  55 S16G25    29.84S
TOPEKA FORBES  MOSUNNY   75  57  53 S21G26    29.83F
$$



USA.gov is the U.S. government's official web portal to all federal, state and local government web resources and services.